Volver al catálogo

STARLINK-31844

ActivoComunicacionesVLEO
NORAD 60583·PAYLOAD·🇺🇸 United States

Lanzado Aug 20, 2024 desde Cape Canaveral Space Force Station

Loading…

Próximos Pases (próximas 24 horas)

TLE

ActualizadoSource: CelesTrak SupGP

Época: Sep 14, 2026, 21:41 UTC

1 60583C 24150A   26257.90395833 -.00062548  00000+0 -20114-2 0  2579
2 60583  53.1582 146.3131 0001343  93.0929  22.4167 15.31733320    11

Sigue STARLINK-31844 en tiempo real con AllMySat

Download on the App Store